Time,TemperatureF,DewpointF,PressureIn,WindDirection,WindDirectionDegrees,WindSpeedMPH,WindSpeedGustMPH,Humidity,HourlyPrecipIn,Conditions,Clouds,dailyrainin,SoftwareType,DateUTC
2013-01-30 00:03:00,55.1,50.0,29.64,West,264,4.0,9.0,83,0.00,,---,0.00,VWS V14.01,2013-01-30 06:03:00,
2013-01-30 00:08:00,54.9,50.2,29.64,NNW,340,3.0,9.0,84,0.00,,---,0.00,VWS V14.01,2013-01-30 06:08:00,
2013-01-30 00:13:00,54.7,49.7,29.65,West,267,6.0,10.0,83,0.00,,---,0.00,VWS V14.01,2013-01-30 06:13:00,
2013-01-30 00:18:00,54.7,50.0,29.66,East,81,6.0,11.0,84,0.00,,---,0.00,VWS V14.01,2013-01-30 06:18:00,
2013-01-30 00:23:00,54.7,49.7,29.66,WSW,245,8.0,11.0,83,0.00,,---,0.00,VWS V14.01,2013-01-30 06:23:00,
2013-01-30 00:28:00,54.6,49.5,29.67,WSW,256,6.0,11.0,83,0.00,,---,0.00,VWS V14.01,2013-01-30 06:28:00,
2013-01-30 00:33:00,54.4,49.0,29.66,West,262,5.0,9.0,82,0.00,,---,0.00,VWS V14.01,2013-01-30 06:33:00,
2013-01-30 00:38:00,54.3,48.9,29.67,WSW,243,3.0,9.0,82,0.00,,---,0.00,VWS V14.01,2013-01-30 06:38:00,
2013-01-30 00:43:00,54.3,48.3,29.66,SW,226,5.0,10.0,80,0.00,,---,0.00,VWS V14.01,2013-01-30 06:43:00,
2013-01-30 00:48:00,54.3,47.9,29.66,SW,227,7.0,10.0,79,0.00,,---,0.00,VWS V14.01,2013-01-30 06:48:00,
2013-01-30 00:53:00,54.4,47.0,29.66,ESE,117,3.0,10.0,76,0.00,,---,0.00,VWS V14.01,2013-01-30 06:53:00,
2013-01-30 00:58:00,54.3,46.9,29.67,WSW,256,4.0,10.0,76,0.00,,---,0.00,VWS V14.01,2013-01-30 06:58:00,
2013-01-30 01:03:00,54.1,46.4,29.67,West,259,5.0,6.0,75,0.00,,---,0.00,VWS V14.01,2013-01-30 07:03:00,
2013-01-30 01:08:00,54.0,46.3,29.66,SW,214,5.0,8.0,75,0.00,,---,0.00,VWS V14.01,2013-01-30 07:08:00,
2013-01-30 01:13:00,53.9,46.2,29.67,WSW,242,6.0,8.0,75,0.00,,---,0.00,VWS V14.01,2013-01-30 07:13:00,
2013-01-30 01:18:00,53.8,45.4,29.67,SW,217,5.0,9.0,73,0.00,,---,0.00,VWS V14.01,2013-01-30 07:18:00,
2013-01-30 01:23:00,53.8,44.6,29.67,West,272,5.0,11.0,71,0.00,,---,0.00,VWS V14.01,2013-01-30 07:23:00,
2013-01-30 01:28:00,53.6,44.4,29.67,SW,231,2.0,11.0,71,0.00,,---,0.00,VWS V14.01,2013-01-30 07:28:00,
2013-01-30 01:33:00,53.4,43.9,29.66,SW,235,4.0,5.0,70,0.00,,---,0.00,VWS V14.01,2013-01-30 07:33:00,
2013-01-30 01:38:00,53.2,43.3,29.66,SW,224,6.0,7.0,69,0.00,,---,0.00,VWS V14.01,2013-01-30 07:38:00,
2013-01-30 01:43:00,53.0,42.7,29.66,SW,217,3.0,8.0,68,0.00,,---,0.00,VWS V14.01,2013-01-30 07:43:00,
2013-01-30 01:47:00,52.9,42.6,29.66,WNW,284,3.0,8.0,68,0.00,,---,0.00,VWS V14.01,2013-01-30 07:47:00,
2013-01-30 01:52:00,52.6,42.7,29.66,ESE,113,4.0,8.0,69,0.00,,---,0.00,VWS V14.01,2013-01-30 07:52:00,
2013-01-30 01:57:00,52.5,42.3,29.66,SSE,162,2.0,8.0,68,0.00,,---,0.00,VWS V14.01,2013-01-30 07:57:00,
2013-01-30 02:02:00,52.4,42.2,29.67,WSW,250,4.0,6.0,68,0.00,,---,0.00,VWS V14.01,2013-01-30 08:02:00,
2013-01-30 02:07:00,52.2,42.0,29.67,SSW,203,3.0,8.0,68,0.00,,---,0.00,VWS V14.01,2013-01-30 08:07:00,
2013-01-30 02:12:00,51.9,42.4,29.67,West,261,2.0,8.0,70,0.00,,---,0.00,VWS V14.01,2013-01-30 08:12:00,
2013-01-30 02:17:00,51.7,41.9,29.67,WSW,240,1.0,8.0,69,0.00,,---,0.00,VWS V14.01,2013-01-30 08:17:00,
2013-01-30 02:22:00,51.5,41.3,29.66,WSW,245,5.0,8.0,68,0.00,,---,0.00,VWS V14.01,2013-01-30 08:22:00,
2013-01-30 02:27:00,51.6,41.4,29.66,SW,226,4.0,8.0,68,0.00,,---,0.00,VWS V14.01,2013-01-30 08:27:00,
2013-01-30 02:32:00,51.5,40.5,29.66,North,7,2.0,7.0,66,0.00,,---,0.00,VWS V14.01,2013-01-30 08:32:00,
2013-01-30 02:37:00,51.4,40.0,29.66,SW,233,6.0,8.0,65,0.00,,---,0.00,VWS V14.01,2013-01-30 08:37:00,
2013-01-30 02:42:00,51.4,39.7,29.66,WSW,253,5.0,8.0,64,0.00,,---,0.00,VWS V14.01,2013-01-30 08:42:00,
2013-01-30 02:47:00,51.4,38.8,29.66,WSW,253,5.0,11.0,62,0.00,,---,0.00,VWS V14.01,2013-01-30 08:47:00,
2013-01-30 02:52:00,51.3,38.7,29.66,SW,229,3.0,11.0,62,0.00,,---,0.00,VWS V14.01,2013-01-30 08:52:00,
2013-01-30 02:57:00,51.3,37.9,29.66,West,267,5.0,11.0,60,0.00,,---,0.00,VWS V14.01,2013-01-30 08:57:00,
2013-01-30 03:02:00,51.3,37.9,29.66,SE,146,4.0,8.0,60,0.00,,---,0.00,VWS V14.01,2013-01-30 09:02:00,
2013-01-30 03:07:00,51.3,37.9,29.66,NW,326,4.0,11.0,60,0.00,,---,0.00,VWS V14.01,2013-01-30 09:07:00,
2013-01-30 03:12:00,51.2,37.4,29.66,West,278,7.0,11.0,59,0.00,,---,0.00,VWS V14.01,2013-01-30 09:12:00,
2013-01-30 03:17:00,51.1,37.3,29.67,NNE,25,5.0,12.0,59,0.00,,---,0.00,VWS V14.01,2013-01-30 09:17:00,
2013-01-30 03:22:00,51.1,37.7,29.66,WSW,248,3.0,12.0,60,0.00,,---,0.00,VWS V14.01,2013-01-30 09:22:00,
2013-01-30 03:27:00,51.0,37.6,29.66,SW,233,4.0,12.0,60,0.00,,---,0.00,VWS V14.01,2013-01-30 09:27:00,
2013-01-30 03:32:00,50.9,36.7,29.66,South,179,5.0,8.0,58,0.00,,---,0.00,VWS V14.01,2013-01-30 09:32:00,
2013-01-30 03:37:00,50.8,37.0,29.67,West,260,5.0,11.0,59,0.00,,---,0.00,VWS V14.01,2013-01-30 09:37:00,
2013-01-30 03:42:00,50.7,36.5,29.67,West,259,5.0,11.0,58,0.00,,---,0.00,VWS V14.01,2013-01-30 09:42:00,
2013-01-30 03:47:00,50.5,36.3,29.67,SW,229,4.0,11.0,58,0.00,,---,0.00,VWS V14.01,2013-01-30 09:47:00,
2013-01-30 03:52:00,50.3,36.5,29.67,NE,56,3.0,11.0,59,0.00,,---,0.00,VWS V14.01,2013-01-30 09:52:00,
2013-01-30 03:57:00,50.1,36.8,29.67,WNW,293,3.0,11.0,60,0.00,,---,0.00,VWS V14.01,2013-01-30 09:57:00,
2013-01-30 04:02:00,49.9,36.6,29.67,SW,217,7.0,8.0,60,0.00,,---,0.00,VWS V14.01,2013-01-30 10:02:00,
2013-01-30 04:07:00,49.7,36.0,29.67,WNW,298,4.0,8.0,59,0.00,,---,0.00,VWS V14.01,2013-01-30 10:07:00,
2013-01-30 04:12:00,49.6,36.3,29.67,SSW,193,7.0,8.0,60,0.00,,---,0.00,VWS V14.01,2013-01-30 10:12:00,
2013-01-30 04:17:00,49.5,35.8,29.67,West,281,3.0,10.0,59,0.00,,---,0.00,VWS V14.01,2013-01-30 10:17:00,
2013-01-30 04:22:00,49.4,36.1,29.68,South,180,5.0,10.0,60,0.00,,---,0.00,VWS V14.01,2013-01-30 10:22:00,
2013-01-30 04:27:00,49.3,36.0,29.68,SSW,213,6.0,10.0,60,0.00,,---,0.00,VWS V14.01,2013-01-30 10:27:00,
2013-01-30 04:32:00,49.2,35.9,29.68,West,269,4.0,9.0,60,0.00,,---,0.00,VWS V14.01,2013-01-30 10:32:00,
2013-01-30 04:37:00,49.1,35.8,29.68,WSW,238,9.0,10.0,60,0.00,,---,0.00,VWS V14.01,2013-01-30 10:37:00,
2013-01-30 04:42:00,48.9,36.1,29.68,WSW,240,5.0,10.0,61,0.00,,---,0.00,VWS V14.01,2013-01-30 10:42:00,
2013-01-30 04:47:00,48.7,36.7,29.68,South,176,3.0,10.0,63,0.00,,---,0.00,VWS V14.01,2013-01-30 10:47:00,
2013-01-30 04:52:00,48.6,35.8,29.68,WNW,284,3.0,10.0,61,0.00,,---,0.00,VWS V14.01,2013-01-30 10:52:00,
2013-01-30 04:57:00,48.4,35.6,29.69,SSW,195,2.0,10.0,61,0.00,,---,0.00,VWS V14.01,2013-01-30 10:57:00,
2013-01-30 05:02:00,48.3,35.5,29.69,NNW,330,3.0,7.0,61,0.00,,---,0.00,VWS V14.01,2013-01-30 11:02:00,
2013-01-30 05:07:00,48.2,35.8,29.69,ESE,102,2.0,8.0,62,0.00,,---,0.00,VWS V14.01,2013-01-30 11:07:00,
2013-01-30 05:12:00,48.0,35.6,29.69,NW,310,3.0,9.0,62,0.00,,---,0.00,VWS V14.01,2013-01-30 11:12:00,
2013-01-30 05:17:00,47.8,35.4,29.70,NW,309,3.0,10.0,62,0.00,,---,0.00,VWS V14.01,2013-01-30 11:17:00,
2013-01-30 05:22:00,47.8,35.4,29.70,WNW,290,6.0,10.0,62,0.00,,---,0.00,VWS V14.01,2013-01-30 11:22:00,
2013-01-30 05:27:00,47.8,35.8,29.70,NNW,330,4.0,10.0,63,0.00,,---,0.00,VWS V14.01,2013-01-30 11:27:00,
2013-01-30 05:32:00,47.9,36.7,29.71,West,266,2.0,10.0,65,0.00,,---,0.00,VWS V14.01,2013-01-30 11:32:00,
2013-01-30 05:37:00,48.1,36.9,29.72,NW,307,11.0,13.0,65,0.00,,---,0.00,VWS V14.01,2013-01-30 11:37:00,
2013-01-30 05:42:00,48.3,37.5,29.72,WNW,300,10.0,14.0,66,0.00,,---,0.00,VWS V14.01,2013-01-30 11:42:00,
2013-01-30 05:47:00,48.4,38.3,29.72,NW,304,8.0,14.0,68,0.00,,---,0.00,VWS V14.01,2013-01-30 11:47:00,
2013-01-30 05:52:00,48.3,38.2,29.72,NW,305,5.0,14.0,68,0.00,,---,0.00,VWS V14.01,2013-01-30 11:52:00,
2013-01-30 05:57:00,48.1,38.8,29.72,WNW,297,10.0,18.0,70,0.00,,---,0.00,VWS V14.01,2013-01-30 11:57:00,
2013-01-30 06:02:00,48.0,39.1,29.73,NW,307,9.0,13.0,71,0.00,,---,0.00,VWS V14.01,2013-01-30 12:02:00,
2013-01-30 06:07:00,47.9,39.7,29.74,NW,305,9.0,13.0,73,0.00,,---,0.00,VWS V14.01,2013-01-30 12:07:00,
2013-01-30 06:12:00,47.7,39.8,29.74,SSW,197,4.0,17.0,74,0.00,,---,0.00,VWS V14.01,2013-01-30 12:12:00,
2013-01-30 06:17:00,47.5,40.0,29.75,WNW,300,10.0,17.0,75,0.00,,---,0.00,VWS V14.01,2013-01-30 12:17:00,
2013-01-30 06:22:00,47.4,40.2,29.75,NW,310,13.0,17.0,76,0.00,,---,0.00,VWS V14.01,2013-01-30 12:22:00,
2013-01-30 06:27:00,47.2,40.4,29.76,WNW,282,7.0,17.0,77,0.00,,---,0.00,VWS V14.01,2013-01-30 12:27:00,
2013-01-30 06:32:00,47.1,40.6,29.76,WNW,297,11.0,16.0,78,0.00,,---,0.00,VWS V14.01,2013-01-30 12:32:00,
2013-01-30 06:37:00,46.9,40.4,29.77,NW,305,14.0,17.0,78,0.00,,---,0.00,VWS V14.01,2013-01-30 12:37:00,
2013-01-30 06:42:00,46.5,40.0,29.76,NNW,330,10.0,17.0,78,0.00,,---,0.00,VWS V14.01,2013-01-30 12:42:00,
2013-01-30 06:47:00,46.3,40.2,29.76,WNW,303,11.0,17.0,79,0.00,,---,0.00,VWS V14.01,2013-01-30 12:47:00,
2013-01-30 06:52:00,46.1,40.0,29.77,NW,305,8.0,17.0,79,0.00,,---,0.00,VWS V14.01,2013-01-30 12:52:00,
2013-01-30 06:57:00,45.9,39.8,29.78,WNW,300,9.0,17.0,79,0.00,,---,0.00,VWS V14.01,2013-01-30 12:57:00,
2013-01-30 07:02:00,45.6,38.2,29.79,WNW,284,9.0,16.0,75,0.00,,---,0.00,VWS V14.01,2013-01-30 13:02:00,
2013-01-30 07:07:00,45.4,37.6,29.79,NW,314,14.0,16.0,74,0.00,,---,0.00,VWS V14.01,2013-01-30 13:07:00,
2013-01-30 07:12:00,45.2,37.1,29.79,NW,311,15.0,20.0,73,0.00,,---,0.00,VWS V14.01,2013-01-30 13:12:00,
2013-01-30 07:17:00,45.1,37.3,29.80,NW,307,8.0,20.0,74,0.00,,---,0.00,VWS V14.01,2013-01-30 13:17:00,
2013-01-30 07:22:00,45.0,36.9,29.80,NW,318,9.0,20.0,73,0.00,,---,0.00,VWS V14.01,2013-01-30 13:22:00,
2013-01-30 07:27:00,45.0,36.5,29.79,NW,308,10.0,20.0,72,0.00,,---,0.00,VWS V14.01,2013-01-30 13:27:00,
2013-01-30 07:32:00,44.9,36.4,29.80,NW,311,8.0,12.0,72,0.00,,---,0.00,VWS V14.01,2013-01-30 13:32:00,
2013-01-30 07:37:00,44.9,36.4,29.80,NW,316,6.0,13.0,72,0.00,,---,0.00,VWS V14.01,2013-01-30 13:37:00,
2013-01-30 07:42:00,45.0,37.2,29.80,NW,304,9.0,13.0,74,0.00,,---,0.00,VWS V14.01,2013-01-30 13:42:00,
2013-01-30 07:47:00,45.0,36.9,29.80,NW,304,10.0,13.0,73,0.00,,---,0.00,VWS V14.01,2013-01-30 13:47:00,
2013-01-30 07:52:00,45.1,36.6,29.81,WNW,300,8.0,15.0,72,0.00,,---,0.00,VWS V14.01,2013-01-30 13:52:00,
2013-01-30 07:57:00,45.4,38.0,29.81,WNW,300,9.0,15.0,75,0.00,,---,0.00,VWS V14.01,2013-01-30 13:57:00,
2013-01-30 08:02:00,45.5,37.0,29.82,West,281,3.0,18.0,72,0.00,,---,0.00,VWS V14.01,2013-01-30 14:02:00,
2013-01-30 08:07:00,45.6,37.5,29.82,SW,231,4.0,18.0,73,0.00,,---,0.00,VWS V14.01,2013-01-30 14:07:00,
2013-01-30 08:12:00,45.6,37.1,29.83,WNW,299,7.0,18.0,72,0.00,,---,0.00,VWS V14.01,2013-01-30 14:12:00,
2013-01-30 08:17:00,45.7,36.8,29.84,WNW,302,12.0,18.0,71,0.00,,---,0.00,VWS V14.01,2013-01-30 14:17:00,
2013-01-30 08:22:00,45.5,37.0,29.83,NNE,15,6.0,18.0,72,0.00,,---,0.00,VWS V14.01,2013-01-30 14:22:00,
2013-01-30 08:27:00,45.3,36.5,29.84,WNW,294,5.0,18.0,71,0.00,,---,0.00,VWS V14.01,2013-01-30 14:27:00,
2013-01-30 08:32:00,45.2,36.0,29.85,WNW,297,11.0,19.0,70,0.00,,---,0.00,VWS V14.01,2013-01-30 14:32:00,
2013-01-30 08:37:00,44.9,36.1,29.86,NW,305,10.0,26.0,71,0.00,,---,0.00,VWS V14.01,2013-01-30 14:37:00,
2013-01-30 08:42:00,44.4,36.0,29.86,NNW,328,10.0,26.0,72,0.00,,---,0.00,VWS V14.01,2013-01-30 14:42:00,
2013-01-30 08:47:00,43.7,35.3,29.86,NW,304,9.0,26.0,72,0.00,,---,0.00,VWS V14.01,2013-01-30 14:47:00,
2013-01-30 08:52:00,43.7,35.3,29.86,NW,307,16.0,26.0,72,0.00,,---,0.00,VWS V14.01,2013-01-30 14:52:00,
2013-01-30 08:57:00,43.8,35.4,29.87,NW,311,7.0,26.0,72,0.00,,---,0.00,VWS V14.01,2013-01-30 14:57:00,
2013-01-30 09:02:00,43.9,34.0,29.87,SW,214,10.0,17.0,68,0.00,,---,0.00,VWS V14.01,2013-01-30 15:02:00,
2013-01-30 09:07:00,43.9,33.3,29.88,WNW,297,13.0,22.0,66,0.00,,---,0.00,VWS V14.01,2013-01-30 15:07:00,
2013-01-30 09:12:00,44.0,33.4,29.88,NW,308,11.0,22.0,66,0.00,,---,0.00,VWS V14.01,2013-01-30 15:12:00,
2013-01-30 09:17:00,44.1,32.3,29.89,NW,304,12.0,22.0,63,0.00,,---,0.00,VWS V14.01,2013-01-30 15:17:00,
2013-01-30 09:22:00,44.2,32.4,29.89,NW,308,15.0,22.0,63,0.00,,---,0.00,VWS V14.01,2013-01-30 15:22:00,
2013-01-30 09:27:00,44.2,32.4,29.90,NW,313,18.0,22.0,63,0.00,,---,0.00,VWS V14.01,2013-01-30 15:27:00,
2013-01-30 09:32:00,44.1,32.3,29.89,NW,305,17.0,23.0,63,0.00,,---,0.00,VWS V14.01,2013-01-30 15:32:00,
2013-01-30 09:37:00,44.0,31.8,29.90,NW,314,17.0,25.0,62,0.00,,---,0.00,VWS V14.01,2013-01-30 15:37:00,
2013-01-30 09:42:00,43.9,30.9,29.90,WNW,303,13.0,26.0,60,0.00,,---,0.00,VWS V14.01,2013-01-30 15:42:00,
2013-01-30 09:47:00,43.8,31.2,29.91,WNW,289,15.0,26.0,61,0.00,,---,0.00,VWS V14.01,2013-01-30 15:47:00,
2013-01-30 09:52:00,43.6,30.2,29.91,NW,311,31.0,31.0,59,0.00,,---,0.00,VWS V14.01,2013-01-30 15:52:00,
2013-01-30 09:57:00,43.6,30.6,29.92,WNW,289,13.0,31.0,60,0.00,,---,0.00,VWS V14.01,2013-01-30 15:57:00,
2013-01-30 10:02:00,43.6,30.2,29.92,NW,304,16.0,25.0,59,0.00,,---,0.00,VWS V14.01,2013-01-30 16:02:00,
2013-01-30 10:07:00,43.5,31.0,29.93,NW,318,11.0,25.0,61,0.00,,---,0.00,VWS V14.01,2013-01-30 16:07:00,
2013-01-30 10:12:00,43.6,30.6,29.93,NW,305,16.0,25.0,60,0.00,,---,0.00,VWS V14.01,2013-01-30 16:12:00,
2013-01-30 10:17:00,43.7,31.1,29.93,West,279,12.0,25.0,61,0.00,,---,0.00,VWS V14.01,2013-01-30 16:17:00,
2013-01-30 10:22:00,43.7,31.1,29.94,WNW,297,23.0,27.0,61,0.00,,---,0.00,VWS V14.01,2013-01-30 16:22:00,
2013-01-30 10:27:00,43.7,31.5,29.94,North,5,16.0,27.0,62,0.00,,---,0.00,VWS V14.01,2013-01-30 16:27:00,
2013-01-30 10:32:00,43.7,31.1,29.94,WNW,299,20.0,20.0,61,0.00,,---,0.00,VWS V14.01,2013-01-30 16:32:00,
2013-01-30 10:37:00,43.7,31.1,29.95,WNW,300,12.0,22.0,61,0.00,,---,0.00,VWS V14.01,2013-01-30 16:37:00,
2013-01-30 10:42:00,43.8,31.2,29.95,NW,309,17.0,26.0,61,0.00,,---,0.00,VWS V14.01,2013-01-30 16:42:00,
2013-01-30 10:47:00,44.1,31.5,29.95,NW,315,18.0,26.0,61,0.00,,---,0.00,VWS V14.01,2013-01-30 16:47:00,
2013-01-30 10:52:00,44.1,31.5,29.96,NNE,14,2.0,26.0,61,0.00,,---,0.00,VWS V14.01,2013-01-30 16:52:00,
2013-01-30 10:57:00,44.3,31.7,29.95,WNW,303,14.0,26.0,61,0.00,,---,0.00,VWS V14.01,2013-01-30 16:57:00,
2013-01-30 11:02:00,44.4,32.2,29.96,NW,316,10.0,15.0,62,0.00,,---,0.00,VWS V14.01,2013-01-30 17:02:00,
2013-01-30 11:07:00,44.3,31.3,29.96,NW,307,14.0,23.0,60,0.00,,---,0.00,VWS V14.01,2013-01-30 17:07:00,
2013-01-30 11:12:00,44.4,31.8,29.97,NW,305,14.0,25.0,61,0.00,,---,0.00,VWS V14.01,2013-01-30 17:12:00,
2013-01-30 11:17:00,44.5,31.9,29.97,West,271,13.0,25.0,61,0.00,,---,0.00,VWS V14.01,2013-01-30 17:17:00,
2013-01-30 11:22:00,44.9,31.5,29.96,NW,305,15.0,25.0,59,0.00,,---,0.00,VWS V14.01,2013-01-30 17:22:00,
2013-01-30 11:27:00,45.2,32.2,29.97,WNW,300,11.0,25.0,60,0.00,,---,0.00,VWS V14.01,2013-01-30 17:27:00,
2013-01-30 11:32:00,45.4,32.3,29.97,NW,313,5.0,16.0,60,0.00,,---,0.00,VWS V14.01,2013-01-30 17:32:00,
2013-01-30 11:37:00,46.0,31.2,29.97,West,276,13.0,22.0,56,0.00,,---,0.00,VWS V14.01,2013-01-30 17:37:00,
2013-01-30 11:42:00,46.1,33.0,29.98,WNW,303,12.0,22.0,60,0.00,,---,0.00,VWS V14.01,2013-01-30 17:42:00,
2013-01-30 11:47:00,45.7,31.4,29.98,WNW,298,13.0,24.0,57,0.00,,---,0.00,VWS V14.01,2013-01-30 17:47:00,
2013-01-30 11:52:00,45.8,31.9,29.98,NW,318,16.0,24.0,58,0.00,,---,0.00,VWS V14.01,2013-01-30 17:52:00,
2013-01-30 11:57:00,45.9,31.1,29.99,WNW,297,21.0,26.0,56,0.00,,---,0.00,VWS V14.01,2013-01-30 17:57:00,
2013-01-30 12:02:00,46.0,30.3,29.98,NW,313,14.0,20.0,54,0.00,,---,0.00,VWS V14.01,2013-01-30 18:02:00,
2013-01-30 12:07:00,46.3,31.0,29.99,NW,311,7.0,23.0,55,0.00,,---,0.00,VWS V14.01,2013-01-30 18:07:00,
2013-01-30 12:12:00,46.4,32.0,29.99,NW,314,14.0,23.0,57,0.00,,---,0.00,VWS V14.01,2013-01-30 18:12:00,
2013-01-30 12:17:00,46.4,31.6,29.99,WNW,301,23.0,30.0,56,0.00,,---,0.00,VWS V14.01,2013-01-30 18:17:00,
2013-01-30 12:22:00,46.4,30.7,29.99,NW,308,12.0,30.0,54,0.00,,---,0.00,VWS V14.01,2013-01-30 18:22:00,
2013-01-30 12:27:00,46.3,31.5,29.99,NW,307,15.0,30.0,56,0.00,,---,0.00,VWS V14.01,2013-01-30 18:27:00,
2013-01-30 12:32:00,46.2,31.4,29.99,WNW,297,15.0,22.0,56,0.00,,---,0.00,VWS V14.01,2013-01-30 18:32:00,
2013-01-30 12:37:00,46.4,30.7,29.98,WNW,300,14.0,24.0,54,0.00,,---,0.00,VWS V14.01,2013-01-30 18:37:00,
2013-01-30 12:42:00,46.7,32.3,29.99,WNW,300,10.0,24.0,57,0.00,,---,0.00,VWS V14.01,2013-01-30 18:42:00,
2013-01-30 12:47:00,46.5,30.8,29.99,WNW,297,9.0,24.0,54,0.00,,---,0.00,VWS V14.01,2013-01-30 18:47:00,
2013-01-30 12:52:00,46.3,31.0,29.98,NNW,330,8.0,24.0,55,0.00,,---,0.00,VWS V14.01,2013-01-30 18:52:00,
2013-01-30 12:57:00,46.0,30.3,29.99,NW,316,14.0,24.0,54,0.00,,---,0.00,VWS V14.01,2013-01-30 18:57:00,
2013-01-30 13:02:00,46.0,30.8,29.99,WNW,303,6.0,13.0,55,0.00,,---,0.00,VWS V14.01,2013-01-30 19:02:00,
2013-01-30 13:07:00,46.2,31.8,29.99,NW,326,10.0,15.0,57,0.00,,---,0.00,VWS V14.01,2013-01-30 19:07:00,
2013-01-30 13:12:00,47.0,33.0,29.99,NW,325,8.0,15.0,58,0.00,,---,0.00,VWS V14.01,2013-01-30 19:12:00,
2013-01-30 13:17:00,46.9,31.1,29.99,WNW,303,19.0,24.0,54,0.00,,---,0.00,VWS V14.01,2013-01-30 19:17:00,
2013-01-30 13:22:00,46.8,30.1,30.00,WNW,300,9.0,26.0,52,0.00,,---,0.00,VWS V14.01,2013-01-30 19:22:00,
2013-01-30 13:27:00,46.8,30.1,30.00,NW,308,19.0,29.0,52,0.00,,---,0.00,VWS V14.01,2013-01-30 19:27:00,
2013-01-30 13:32:00,47.1,30.9,30.00,NW,304,9.0,18.0,53,0.00,,---,0.00,VWS V14.01,2013-01-30 19:32:00,
2013-01-30 13:37:00,46.6,29.5,30.00,WNW,293,18.0,23.0,51,0.00,,---,0.00,VWS V14.01,2013-01-30 19:37:00,
2013-01-30 13:42:00,46.6,29.9,30.00,WNW,300,14.0,25.0,52,0.00,,---,0.00,VWS V14.01,2013-01-30 19:42:00,
2013-01-30 13:47:00,46.8,29.6,30.00,NW,307,24.0,25.0,51,0.00,,---,0.00,VWS V14.01,2013-01-30 19:47:00,
2013-01-30 13:52:00,47.2,29.0,29.99,NW,307,13.0,25.0,49,0.00,,---,0.00,VWS V14.01,2013-01-30 19:52:00,
2013-01-30 13:57:00,47.7,30.0,30.00,WSW,255,6.0,25.0,50,0.00,,---,0.00,VWS V14.01,2013-01-30 19:57:00,
2013-01-30 14:02:00,48.2,30.0,29.99,NW,316,13.0,21.0,49,0.00,,---,0.00,VWS V14.01,2013-01-30 20:02:00,
2013-01-30 14:07:00,47.9,29.7,30.00,NW,304,14.0,21.0,49,0.00,,---,0.00,VWS V14.01,2013-01-30 20:07:00,
2013-01-30 14:12:00,47.6,30.4,30.00,WNW,300,8.0,21.0,51,0.00,,---,0.00,VWS V14.01,2013-01-30 20:12:00,
2013-01-30 14:17:00,48.5,30.2,29.99,NW,311,8.0,21.0,49,0.00,,---,0.00,VWS V14.01,2013-01-30 20:17:00,
2013-01-30 14:22:00,48.2,30.0,30.00,WNW,300,17.0,21.0,49,0.00,,---,0.00,VWS V14.01,2013-01-30 20:22:00,
2013-01-30 14:27:00,47.8,29.6,29.99,NW,305,12.0,21.0,49,0.00,,---,0.00,VWS V14.01,2013-01-30 20:27:00,
2013-01-30 14:32:00,47.7,29.5,29.99,WNW,300,14.0,19.0,49,0.00,,---,0.00,VWS V14.01,2013-01-30 20:32:00,
2013-01-30 14:37:00,48.0,29.3,29.99,NW,305,12.0,19.0,48,0.00,,---,0.00,VWS V14.01,2013-01-30 20:37:00,
2013-01-30 14:42:00,48.3,30.5,29.99,WNW,300,11.0,23.0,50,0.00,,---,0.00,VWS V14.01,2013-01-30 20:42:00,
2013-01-30 14:47:00,48.7,30.4,29.99,WNW,300,19.0,23.0,49,0.00,,---,0.00,VWS V14.01,2013-01-30 20:47:00,
2013-01-30 14:52:00,49.1,30.3,29.99,NW,307,14.0,23.0,48,0.00,,---,0.00,VWS V14.01,2013-01-30 20:52:00,
2013-01-30 14:57:00,49.4,29.0,29.99,WNW,291,12.0,23.0,45,0.00,,---,0.00,VWS V14.01,2013-01-30 20:57:00,
2013-01-30 15:02:00,49.6,30.2,29.99,NW,311,11.0,12.0,47,0.00,,---,0.00,VWS V14.01,2013-01-30 21:02:00,
2013-01-30 15:07:00,49.8,29.3,29.99,NW,311,12.0,14.0,45,0.00,,---,0.00,VWS V14.01,2013-01-30 21:07:00,
2013-01-30 15:12:00,49.7,29.2,29.99,NW,315,7.0,15.0,45,0.00,,---,0.00,VWS V14.01,2013-01-30 21:12:00,
2013-01-30 15:17:00,50.0,30.0,30.00,WNW,293,9.0,16.0,46,0.00,,---,0.00,VWS V14.01,2013-01-30 21:17:00,
2013-01-30 15:22:00,50.3,29.8,29.99,NW,321,13.0,16.0,45,0.00,,---,0.00,VWS V14.01,2013-01-30 21:22:00,
2013-01-30 15:27:00,50.5,30.0,29.99,NW,312,7.0,17.0,45,0.00,,---,0.00,VWS V14.01,2013-01-30 21:27:00,
2013-01-30 15:32:00,50.8,30.8,29.99,NW,316,9.0,13.0,46,0.00,,---,0.00,VWS V14.01,2013-01-30 21:32:00,
2013-01-30 15:37:00,50.4,29.9,30.00,NW,321,8.0,17.0,45,0.00,,---,0.00,VWS V14.01,2013-01-30 21:37:00,
2013-01-30 15:42:00,50.2,29.1,30.00,NW,308,17.0,17.0,44,0.00,,---,0.00,VWS V14.01,2013-01-30 21:42:00,
2013-01-30 15:47:00,50.1,29.6,30.01,WNW,303,16.0,18.0,45,0.00,,---,0.00,VWS V14.01,2013-01-30 21:47:00,
2013-01-30 15:52:00,50.2,28.6,30.01,NW,304,15.0,18.0,43,0.00,,---,0.00,VWS V14.01,2013-01-30 21:52:00,
2013-01-30 15:57:00,50.6,30.6,30.01,WNW,297,13.0,18.0,46,0.00,,---,0.00,VWS V14.01,2013-01-30 21:57:00,
2013-01-30 16:02:00,50.2,29.1,30.01,NNW,334,8.0,13.0,44,0.00,,---,0.00,VWS V14.01,2013-01-30 22:02:00,
2013-01-30 16:07:00,50.4,28.8,30.01,NW,316,8.0,16.0,43,0.00,,---,0.00,VWS V14.01,2013-01-30 22:07:00,
2013-01-30 16:12:00,50.4,28.2,30.01,NW,308,5.0,16.0,42,0.00,,---,0.00,VWS V14.01,2013-01-30 22:12:00,
2013-01-30 16:17:00,50.4,28.8,30.01,WNW,294,15.0,16.0,43,0.00,,---,0.00,VWS V14.01,2013-01-30 22:17:00,
2013-01-30 16:22:00,50.6,30.6,30.02,WNW,300,9.0,16.0,46,0.00,,---,0.00,VWS V14.01,2013-01-30 22:22:00,
2013-01-30 16:27:00,50.7,28.5,30.02,WNW,297,6.0,16.0,42,0.00,,---,0.00,VWS V14.01,2013-01-30 22:27:00,
2013-01-30 16:32:00,50.4,28.8,30.02,WNW,296,8.0,9.0,43,0.00,,---,0.00,VWS V14.01,2013-01-30 22:32:00,
2013-01-30 16:37:00,50.5,28.9,30.02,NW,317,9.0,11.0,43,0.00,,---,0.00,VWS V14.01,2013-01-30 22:37:00,
2013-01-30 16:42:00,50.8,29.7,30.02,NW,314,9.0,18.0,44,0.00,,---,0.00,VWS V14.01,2013-01-30 22:42:00,
2013-01-30 16:47:00,50.8,26.8,30.02,WNW,303,6.0,20.0,39,0.00,,---,0.00,VWS V14.01,2013-01-30 22:47:00,
2013-01-30 16:52:00,50.9,27.5,30.03,NW,309,10.0,20.0,40,0.00,,---,0.00,VWS V14.01,2013-01-30 22:52:00,
2013-01-30 16:57:00,50.9,27.5,30.03,WNW,297,13.0,20.0,40,0.00,,---,0.00,VWS V14.01,2013-01-30 22:57:00,
2013-01-30 17:02:00,50.8,28.0,30.03,NW,304,11.0,13.0,41,0.00,,---,0.00,VWS V14.01,2013-01-30 23:02:00,
2013-01-30 17:07:00,50.8,29.1,30.03,WNW,301,10.0,14.0,43,0.00,,---,0.00,VWS V14.01,2013-01-30 23:07:00,
2013-01-30 17:12:00,50.8,29.1,30.04,NW,308,7.0,15.0,43,0.00,,---,0.00,VWS V14.01,2013-01-30 23:12:00,
2013-01-30 17:17:00,50.5,27.1,30.04,NW,309,7.0,15.0,40,0.00,,---,0.00,VWS V14.01,2013-01-30 23:17:00,
2013-01-30 17:22:00,50.5,27.1,30.04,NW,311,13.0,17.0,40,0.00,,---,0.00,VWS V14.01,2013-01-30 23:22:00,
2013-01-30 17:27:00,50.4,27.0,30.05,NW,323,11.0,17.0,40,0.00,,---,0.00,VWS V14.01,2013-01-30 23:27:00,
2013-01-30 17:32:00,50.3,28.1,30.05,NW,313,8.0,11.0,42,0.00,,---,0.00,VWS V14.01,2013-01-30 23:32:00,
2013-01-30 17:37:00,50.0,27.2,30.04,WNW,300,2.0,13.0,41,0.00,,---,0.00,VWS V14.01,2013-01-30 23:37:00,
2013-01-30 17:42:00,49.9,28.9,30.05,WNW,294,7.0,13.0,44,0.00,,---,0.00,VWS V14.01,2013-01-30 23:42:00,
2013-01-30 17:47:00,49.6,28.0,30.05,NW,310,6.0,13.0,43,0.00,,---,0.00,VWS V14.01,2013-01-30 23:47:00,
2013-01-30 17:52:00,49.4,28.4,30.05,West,273,5.0,13.0,44,0.00,,---,0.00,VWS V14.01,2013-01-30 23:52:00,
2013-01-30 17:57:00,49.2,27.7,30.06,WNW,300,6.0,13.0,43,0.00,,---,0.00,VWS V14.01,2013-01-30 23:57:00,
2013-01-30 18:02:00,49.1,28.7,30.06,NW,305,8.0,11.0,45,0.00,,---,0.00,VWS V14.01,2013-01-31 00:02:00,
2013-01-30 18:07:00,48.9,28.5,30.06,NW,321,3.0,13.0,45,0.00,,---,0.00,VWS V14.01,2013-01-31 00:07:00,
2013-01-30 18:12:00,48.7,26.6,30.07,NW,307,7.0,17.0,42,0.00,,---,0.00,VWS V14.01,2013-01-31 00:12:00,
2013-01-30 18:17:00,48.5,27.6,30.07,NW,307,9.0,17.0,44,0.00,,---,0.00,VWS V14.01,2013-01-31 00:17:00,
2013-01-30 18:22:00,48.3,28.0,30.07,WNW,294,5.0,17.0,45,0.00,,---,0.00,VWS V14.01,2013-01-31 00:22:00,
2013-01-30 18:27:00,48.1,26.7,30.07,WNW,301,4.0,17.0,43,0.00,,---,0.00,VWS V14.01,2013-01-31 00:27:00,
2013-01-30 18:32:00,47.9,27.0,30.08,WNW,301,5.0,7.0,44,0.00,,---,0.00,VWS V14.01,2013-01-31 00:32:00,
2013-01-30 18:37:00,47.7,27.4,30.08,NW,307,7.0,8.0,45,0.00,,---,0.00,VWS V14.01,2013-01-31 00:37:00,
2013-01-30 18:42:00,47.5,28.8,30.08,North,351,1.0,8.0,48,0.00,,---,0.00,VWS V14.01,2013-01-31 00:42:00,
2013-01-30 18:47:00,47.3,29.1,30.09,NW,304,0.0,8.0,49,0.00,,---,0.00,VWS V14.01,2013-01-31 00:47:00,
2013-01-30 18:52:00,47.1,29.4,30.09,West,276,2.0,8.0,50,0.00,,---,0.00,VWS V14.01,2013-01-31 00:52:00,
2013-01-30 18:57:00,46.8,29.6,30.10,WNW,290,1.0,8.0,51,0.00,,---,0.00,VWS V14.01,2013-01-31 00:57:00,
2013-01-30 19:02:00,46.5,28.4,30.10,WNW,296,3.0,3.0,49,0.00,,---,0.00,VWS V14.01,2013-01-31 01:02:00,
2013-01-30 19:07:00,46.5,29.8,30.10,NNE,12,1.0,5.0,52,0.00,,---,0.00,VWS V14.01,2013-01-31 01:07:00,
2013-01-30 19:12:00,46.3,29.6,30.10,NW,310,2.0,5.0,52,0.00,,---,0.00,VWS V14.01,2013-01-31 01:12:00,
2013-01-30 19:17:00,46.3,28.7,30.10,North,9,0.0,5.0,50,0.00,,---,0.00,VWS V14.01,2013-01-31 01:17:00,
2013-01-30 19:22:00,46.1,28.5,30.10,East,91,0.0,5.0,50,0.00,,---,0.00,VWS V14.01,2013-01-31 01:22:00,
2013-01-30 19:27:00,45.9,29.3,30.10,North,355,0.0,5.0,52,0.00,,---,0.00,VWS V14.01,2013-01-31 01:27:00,
2013-01-30 19:32:00,45.8,29.2,30.11,ENE,77,0.0,2.0,52,0.00,,---,0.00,VWS V14.01,2013-01-31 01:32:00,
2013-01-30 19:37:00,45.9,30.2,30.11,WNW,300,4.0,6.0,54,0.00,,---,0.00,VWS V14.01,2013-01-31 01:37:00,
2013-01-30 19:41:00,45.8,30.6,30.11,West,276,1.0,6.0,55,0.00,,---,0.00,VWS V14.01,2013-01-31 01:41:00,
2013-01-30 19:46:00,45.7,30.0,30.12,WNW,300,3.0,6.0,54,0.00,,---,0.00,VWS V14.01,2013-01-31 01:46:00,
2013-01-30 19:51:00,45.6,29.9,30.12,WSW,255,3.0,6.0,54,0.00,,---,0.00,VWS V14.01,2013-01-31 01:51:00,
2013-01-30 19:56:00,45.6,29.9,30.11,NW,307,3.0,6.0,54,0.00,,---,0.00,VWS V14.01,2013-01-31 01:56:00,
2013-01-30 20:01:00,45.6,30.4,30.12,WNW,300,3.0,4.0,55,0.00,,---,0.00,VWS V14.01,2013-01-31 02:01:00,
2013-01-30 20:06:00,45.6,29.5,30.12,WNW,299,4.0,5.0,53,0.00,,---,0.00,VWS V14.01,2013-01-31 02:06:00,
2013-01-30 20:11:00,45.7,30.0,30.12,WNW,298,4.0,10.0,54,0.00,,---,0.00,VWS V14.01,2013-01-31 02:11:00,
2013-01-30 20:16:00,45.9,29.8,30.12,NW,304,6.0,10.0,53,0.00,,---,0.00,VWS V14.01,2013-01-31 02:16:00,
2013-01-30 20:21:00,46.0,29.4,30.12,WNW,300,5.0,10.0,52,0.00,,---,0.00,VWS V14.01,2013-01-31 02:21:00,
2013-01-30 20:26:00,46.0,28.9,30.12,WNW,297,6.0,10.0,51,0.00,,---,0.00,VWS V14.01,2013-01-31 02:26:00,
2013-01-30 20:31:00,46.0,28.4,30.12,NW,304,5.0,6.0,50,0.00,,---,0.00,VWS V14.01,2013-01-31 02:31:00,
2013-01-30 20:36:00,45.9,28.8,30.12,NW,304,6.0,8.0,51,0.00,,---,0.00,VWS V14.01,2013-01-31 02:36:00,
2013-01-30 20:41:00,45.9,28.8,30.12,NW,308,2.0,8.0,51,0.00,,---,0.00,VWS V14.01,2013-01-31 02:41:00,
2013-01-30 20:46:00,45.7,29.1,30.12,NW,321,0.0,8.0,52,0.00,,---,0.00,VWS V14.01,2013-01-31 02:46:00,
2013-01-30 20:51:00,45.3,28.2,30.13,NNW,328,0.0,8.0,51,0.00,,---,0.00,VWS V14.01,2013-01-31 02:51:00,
2013-01-30 20:56:00,45.2,28.6,30.13,NNW,333,0.0,8.0,52,0.00,,---,0.00,VWS V14.01,2013-01-31 02:56:00,
2013-01-30 21:01:00,44.9,29.7,30.12,WNW,297,1.0,2.0,55,0.00,,---,0.00,VWS V14.01,2013-01-31 03:01:00,
2013-01-30 21:06:00,44.7,28.6,30.12,WNW,300,2.0,3.0,53,0.00,,---,0.00,VWS V14.01,2013-01-31 03:06:00,
2013-01-30 21:11:00,44.6,29.5,30.12,WNW,289,0.0,3.0,55,0.00,,---,0.00,VWS V14.01,2013-01-31 03:11:00,
2013-01-30 21:16:00,44.2,29.5,30.13,WNW,288,0.0,3.0,56,0.00,,---,0.00,VWS V14.01,2013-01-31 03:16:00,
2013-01-30 21:21:00,43.9,30.5,30.13,WNW,287,0.0,3.0,59,0.00,,---,0.00,VWS V14.01,2013-01-31 03:21:00,
2013-01-30 21:26:00,43.6,29.8,30.13,WSW,240,0.0,3.0,58,0.00,,---,0.00,VWS V14.01,2013-01-31 03:26:00,
2013-01-30 21:31:00,43.5,29.7,30.13,SSW,203,0.0,2.0,58,0.00,,---,0.00,VWS V14.01,2013-01-31 03:31:00,
2013-01-30 21:36:00,43.4,30.0,30.13,SW,225,1.0,2.0,59,0.00,,---,0.00,VWS V14.01,2013-01-31 03:36:00,
2013-01-30 21:41:00,43.4,29.6,30.13,West,266,0.0,3.0,58,0.00,,---,0.00,VWS V14.01,2013-01-31 03:41:00,
2013-01-30 21:46:00,43.3,30.4,30.13,NW,326,0.0,3.0,60,0.00,,---,0.00,VWS V14.01,2013-01-31 03:46:00,
2013-01-30 21:51:00,43.1,31.8,30.13,WSW,247,0.0,3.0,64,0.00,,---,0.00,VWS V14.01,2013-01-31 03:51:00,
2013-01-30 21:56:00,42.7,31.0,30.13,WSW,238,0.0,3.0,63,0.00,,---,0.00,VWS V14.01,2013-01-31 03:56:00,
2013-01-30 22:01:00,42.3,32.5,30.12,WSW,240,0.0,0.0,68,0.00,,---,0.00,VWS V14.01,2013-01-31 04:01:00,
2013-01-30 22:06:00,41.8,31.7,30.12,West,269,0.0,1.0,67,0.00,,---,0.00,VWS V14.01,2013-01-31 04:06:00,
2013-01-30 22:11:00,41.7,31.2,30.12,WSW,257,0.0,1.0,66,0.00,,---,0.00,VWS V14.01,2013-01-31 04:11:00,
2013-01-30 22:16:00,41.7,30.4,30.12,West,274,1.0,1.0,64,0.00,,---,0.00,VWS V14.01,2013-01-31 04:16:00,
2013-01-30 22:21:00,41.6,30.7,30.13,WSW,256,1.0,1.0,65,0.00,,---,0.00,VWS V14.01,2013-01-31 04:21:00,
2013-01-30 22:26:00,41.5,31.4,30.13,WSW,255,0.0,1.0,67,0.00,,---,0.00,VWS V14.01,2013-01-31 04:26:00,
2013-01-30 22:31:00,41.4,32.4,30.13,SW,231,1.0,1.0,70,0.00,,---,0.00,VWS V14.01,2013-01-31 04:31:00,
2013-01-30 22:36:00,41.3,33.0,30.13,SW,214,2.0,2.0,72,0.00,,---,0.00,VWS V14.01,2013-01-31 04:36:00,
2013-01-30 22:41:00,41.3,32.6,30.13,SW,217,1.0,2.0,71,0.00,,---,0.00,VWS V14.01,2013-01-31 04:41:00,
2013-01-30 22:46:00,41.3,32.3,30.13,SW,218,0.0,2.0,70,0.00,,---,0.00,VWS V14.01,2013-01-31 04:46:00,
2013-01-30 22:51:00,41.2,31.8,30.13,SW,218,0.0,2.0,69,0.00,,---,0.00,VWS V14.01,2013-01-31 04:51:00,
2013-01-30 22:56:00,41.1,33.5,30.13,SW,219,0.0,2.0,74,0.00,,---,0.00,VWS V14.01,2013-01-31 04:56:00,
2013-01-30 23:00:00,40.9,33.3,30.13,WSW,239,0.0,2.0,74,0.00,,---,0.00,VWS V14.01,2013-01-31 05:00:00,
2013-01-30 23:03:00,40.8,33.2,30.13,WSW,242,0.0,1.0,74,0.00,,---,0.00,VWS V14.01,2013-01-31 05:03:00,
2013-01-30 23:08:00,40.7,33.4,30.13,WSW,239,0.0,1.0,75,0.00,,---,0.00,VWS V14.01,2013-01-31 05:08:00,
2013-01-30 23:13:00,40.4,34.1,30.13,WSW,238,0.0,1.0,78,0.00,,---,0.00,VWS V14.01,2013-01-31 05:13:00,
2013-01-30 23:18:00,40.1,33.8,30.13,WSW,243,0.0,1.0,78,0.00,,---,0.00,VWS V14.01,2013-01-31 05:18:00,
2013-01-30 23:23:00,40.2,32.2,30.13,WSW,238,1.0,2.0,73,0.00,,---,0.00,VWS V14.01,2013-01-31 05:23:00,
2013-01-30 23:28:00,40.6,32.3,30.12,WSW,239,0.0,2.0,72,0.00,,---,0.00,VWS V14.01,2013-01-31 05:28:00,
2013-01-30 23:33:00,40.5,33.2,30.12,WSW,257,0.0,1.0,75,0.00,,---,0.00,VWS V14.01,2013-01-31 05:33:00,
2013-01-30 23:38:00,40.1,34.1,30.12,West,271,0.0,1.0,79,0.00,,---,0.00,VWS V14.01,2013-01-31 05:38:00,
2013-01-30 23:43:00,39.7,33.1,30.12,West,263,0.0,1.0,77,0.00,,---,0.00,VWS V14.01,2013-01-31 05:43:00,
2013-01-30 23:48:00,39.5,33.8,30.12,WSW,258,1.0,1.0,80,0.00,,---,0.00,VWS V14.01,2013-01-31 05:48:00,
2013-01-30 23:53:00,39.5,32.2,30.12,SW,236,2.0,2.0,75,0.00,,---,0.00,VWS V14.01,2013-01-31 05:53:00,
2013-01-30 23:58:00,39.9,32.6,30.12,WSW,249,0.0,2.0,75,0.00,,---,0.00,VWS V14.01,2013-01-31 05:58:00,